Location: *
(45.9500°N, 9.0833°E)
Time: 18:20:19
(UTC+00:00)

Cosmos 2084 Rocket - Pass Details

Date: 03 March 2021
Orbit: 527 x 653 km, 62.8° (Epoch: 15 April)

Event Time Altitude Azimuth Distance (km) Brightness Sun altitude
Rises 18:24:03 0° 319° (NW) 2,807 7.7 -13.1°
Reaches altitude 10° 18:26:16 10° 318° (NW) 1,925 6.8 -13.5°
Maximum altitude 18:30:37 76° 232° (SW) 631 3.7 -14.3°
Enters shadow 18:35:00 11° 148° (SSE) 1,940 5.7 -15.0°
